Year,Month,Day,Hour,Minute,Value (Times are PST for temperature in C)
2015,12,14,00,00,3.40
2015,12,14,00,01,3.40
2015,12,14,00,02,3.40
2015,12,14,00,03,3.40
2015,12,14,00,04,3.40
2015,12,14,00,05,3.40
2015,12,14,00,06,3.40
2015,12,14,00,07,3.40
2015,12,14,00,08,3.40
2015,12,14,00,09,3.40
2015,12,14,00,10,3.30
2015,12,14,00,11,3.30
2015,12,14,00,12,3.30
2015,12,14,00,13,3.30
2015,12,14,00,14,3.30
2015,12,14,00,15,3.30
2015,12,14,00,16,3.30
2015,12,14,00,17,3.20
2015,12,14,00,18,3.20
2015,12,14,00,19,3.20
2015,12,14,00,20,3.20
2015,12,14,00,21,3.20
2015,12,14,00,22,3.30
2015,12,14,00,23,3.30
2015,12,14,00,24,3.40
2015,12,14,00,25,3.40
2015,12,14,00,26,3.40
2015,12,14,00,27,3.40
2015,12,14,00,28,3.40
2015,12,14,00,29,3.40
2015,12,14,00,30,3.40
2015,12,14,00,31,3.40
2015,12,14,00,32,3.40
2015,12,14,00,33,3.40
2015,12,14,00,34,3.40
2015,12,14,00,35,3.40
2015,12,14,00,36,3.40
2015,12,14,00,37,3.40
2015,12,14,00,38,3.40
2015,12,14,00,39,3.40
2015,12,14,00,40,3.40
2015,12,14,00,41,3.30
2015,12,14,00,42,3.30
2015,12,14,00,43,3.30
2015,12,14,00,44,3.20
2015,12,14,00,45,3.20
2015,12,14,00,46,3.20
2015,12,14,00,47,3.20
2015,12,14,00,48,3.10
2015,12,14,00,49,3.10
2015,12,14,00,50,3.10
2015,12,14,00,51,3.10
2015,12,14,00,52,3.10
2015,12,14,00,53,3.10
2015,12,14,00,54,3.10
2015,12,14,00,55,3.10
2015,12,14,00,56,3.20
2015,12,14,00,57,3.20
2015,12,14,00,58,3.20
2015,12,14,00,59,3.20
2015,12,14,01,00,3.20
2015,12,14,01,01,3.20
2015,12,14,01,02,3.20
2015,12,14,01,03,3.20
2015,12,14,01,04,3.10
2015,12,14,01,05,3.10
2015,12,14,01,06,3.10
2015,12,14,01,07,3.00
2015,12,14,01,08,3.00
2015,12,14,01,09,2.90
2015,12,14,01,10,2.90
2015,12,14,01,11,2.90
2015,12,14,01,12,2.90
2015,12,14,01,13,2.90
2015,12,14,01,14,2.90
2015,12,14,01,15,2.90
2015,12,14,01,16,2.80
2015,12,14,01,17,2.80
2015,12,14,01,18,2.80
2015,12,14,01,19,2.80
2015,12,14,01,20,2.80
2015,12,14,01,21,2.70
2015,12,14,01,22,2.70
2015,12,14,01,23,2.60
2015,12,14,01,24,2.60
2015,12,14,01,25,2.60
2015,12,14,01,26,2.50
2015,12,14,01,27,2.50
2015,12,14,01,28,2.40
2015,12,14,01,29,2.40
2015,12,14,01,30,2.40
2015,12,14,01,31,2.40
2015,12,14,01,32,2.40
2015,12,14,01,33,2.40
2015,12,14,01,34,2.40
2015,12,14,01,35,2.40
2015,12,14,01,36,2.40
2015,12,14,01,37,2.40
2015,12,14,01,38,2.40
2015,12,14,01,39,2.40
2015,12,14,01,40,2.40
2015,12,14,01,41,2.40
2015,12,14,01,42,2.40
2015,12,14,01,43,2.40
2015,12,14,01,44,2.40
2015,12,14,01,45,2.30
2015,12,14,01,46,2.30
2015,12,14,01,47,2.30
2015,12,14,01,48,2.30
2015,12,14,01,49,2.30
2015,12,14,01,50,2.20
2015,12,14,01,51,2.20
2015,12,14,01,52,2.20
2015,12,14,01,53,2.10
2015,12,14,01,54,2.10
2015,12,14,01,55,2.00
2015,12,14,01,56,2.00
2015,12,14,01,57,2.00
2015,12,14,01,58,2.00
2015,12,14,01,59,2.00
2015,12,14,02,00,1.90
2015,12,14,02,01,1.90
2015,12,14,02,02,1.90
2015,12,14,02,03,1.90
2015,12,14,02,04,1.90
2015,12,14,02,05,2.00
2015,12,14,02,06,2.00
2015,12,14,02,07,2.00
2015,12,14,02,08,2.00
2015,12,14,02,09,2.10
2015,12,14,02,10,2.10
2015,12,14,02,11,2.10
2015,12,14,02,12,2.10
2015,12,14,02,13,2.10
2015,12,14,02,14,2.10
2015,12,14,02,15,2.20
2015,12,14,02,16,2.20
2015,12,14,02,17,2.20
2015,12,14,02,18,2.20
2015,12,14,02,19,2.20
2015,12,14,02,20,2.20
2015,12,14,02,21,2.20
2015,12,14,02,22,2.20
2015,12,14,02,23,2.20
2015,12,14,02,24,2.20
2015,12,14,02,25,2.20
2015,12,14,02,26,2.20
2015,12,14,02,27,2.20
2015,12,14,02,28,2.20
2015,12,14,02,29,2.20
2015,12,14,02,30,2.20
2015,12,14,02,31,2.20
2015,12,14,02,32,2.20
2015,12,14,02,33,2.20
2015,12,14,02,34,2.20
2015,12,14,02,35,2.10
2015,12,14,02,36,2.10
2015,12,14,02,37,2.10
2015,12,14,02,38,2.10
2015,12,14,02,39,2.10
2015,12,14,02,40,2.10
2015,12,14,02,41,2.10
2015,12,14,02,42,2.10
2015,12,14,02,43,2.10
2015,12,14,02,44,2.00
2015,12,14,02,45,2.00
2015,12,14,02,46,2.00
2015,12,14,02,47,1.90
2015,12,14,02,48,1.90
2015,12,14,02,49,1.90
2015,12,14,02,50,1.90
2015,12,14,02,51,1.90
2015,12,14,02,52,1.90
2015,12,14,02,53,1.90
2015,12,14,02,54,1.90
2015,12,14,02,55,1.90
2015,12,14,02,56,1.90
2015,12,14,02,57,1.90
2015,12,14,02,58,1.90
2015,12,14,02,59,1.90
2015,12,14,03,00,1.80
2015,12,14,03,01,1.80
2015,12,14,03,02,1.80
2015,12,14,03,03,1.80
2015,12,14,03,04,1.80
2015,12,14,03,05,1.80
2015,12,14,03,06,1.70
2015,12,14,03,07,1.60
2015,12,14,03,08,1.60
2015,12,14,03,09,1.50
2015,12,14,03,10,1.50
2015,12,14,03,11,1.50
2015,12,14,03,12,1.40
2015,12,14,03,13,1.40
2015,12,14,03,14,1.40
2015,12,14,03,15,1.40
2015,12,14,03,16,1.40
2015,12,14,03,17,1.40
2015,12,14,03,18,1.40
2015,12,14,03,19,1.40
2015,12,14,03,20,1.40
2015,12,14,03,21,1.40
2015,12,14,03,22,1.40
2015,12,14,03,23,1.40
2015,12,14,03,24,1.40
2015,12,14,03,25,1.30
2015,12,14,03,26,1.30
2015,12,14,03,27,1.30
2015,12,14,03,28,1.40
2015,12,14,03,29,1.40
2015,12,14,03,30,1.40
2015,12,14,03,31,1.40
2015,12,14,03,32,1.40
2015,12,14,03,33,1.40
2015,12,14,03,34,1.40
2015,12,14,03,35,1.40
2015,12,14,03,36,1.40
2015,12,14,03,37,1.40
2015,12,14,03,38,1.40
2015,12,14,03,39,1.40
2015,12,14,03,40,1.40
2015,12,14,03,41,1.40
2015,12,14,03,42,1.40
2015,12,14,03,43,1.40
2015,12,14,03,44,1.40
2015,12,14,03,45,1.40
2015,12,14,03,46,1.40
2015,12,14,03,47,1.40
2015,12,14,03,48,1.40
2015,12,14,03,49,1.40
2015,12,14,03,50,1.40
2015,12,14,03,51,1.40
2015,12,14,03,52,1.30
2015,12,14,03,53,1.30
2015,12,14,03,54,1.30
2015,12,14,03,55,1.30
2015,12,14,03,56,1.30
2015,12,14,03,57,1.30
2015,12,14,03,58,1.30
2015,12,14,03,59,1.30
2015,12,14,04,00,1.30
2015,12,14,04,01,1.30
2015,12,14,04,02,1.30
2015,12,14,04,03,1.30
2015,12,14,04,04,1.30
2015,12,14,04,05,1.30
2015,12,14,04,06,1.30
2015,12,14,04,07,1.30
2015,12,14,04,08,1.30
2015,12,14,04,09,1.30
2015,12,14,04,10,1.30
2015,12,14,04,11,1.30
2015,12,14,04,12,1.30
2015,12,14,04,13,1.30
2015,12,14,04,14,1.30
2015,12,14,04,15,1.20
2015,12,14,04,16,1.20
2015,12,14,04,17,1.20
2015,12,14,04,18,1.20
2015,12,14,04,19,1.20
2015,12,14,04,20,1.20
2015,12,14,04,21,1.20
2015,12,14,04,22,1.10
2015,12,14,04,23,1.10
2015,12,14,04,24,1.10
2015,12,14,04,25,1.10
2015,12,14,04,26,1.10
2015,12,14,04,27,1.10
2015,12,14,04,28,1.10
2015,12,14,04,29,1.10
2015,12,14,04,30,1.10
2015,12,14,04,31,1.00
2015,12,14,04,32,1.00
2015,12,14,04,33,0.90
2015,12,14,04,34,0.90
2015,12,14,04,35,0.80
2015,12,14,04,36,0.80
2015,12,14,04,37,0.80
2015,12,14,04,38,0.80
2015,12,14,04,39,0.70
2015,12,14,04,40,0.70
2015,12,14,04,41,0.70
2015,12,14,04,42,0.70
2015,12,14,04,43,0.70
2015,12,14,04,44,0.70
2015,12,14,04,45,0.70
2015,12,14,04,46,0.70
2015,12,14,04,47,0.80
2015,12,14,04,48,0.80
2015,12,14,04,49,0.80
2015,12,14,04,50,0.80
2015,12,14,04,51,0.80
2015,12,14,04,52,0.80
2015,12,14,04,53,0.80
2015,12,14,04,54,0.90
2015,12,14,04,55,0.90
2015,12,14,04,56,0.90
2015,12,14,04,57,0.90
2015,12,14,04,58,0.90
2015,12,14,04,59,0.90
2015,12,14,05,00,0.90
2015,12,14,05,01,0.90
2015,12,14,05,02,0.80
2015,12,14,05,03,0.80
2015,12,14,05,04,0.80
2015,12,14,05,05,0.80
2015,12,14,05,06,0.80
2015,12,14,05,07,0.80
2015,12,14,05,08,0.80
2015,12,14,05,09,0.80
2015,12,14,05,10,0.80
2015,12,14,05,11,0.80
2015,12,14,05,12,0.80
2015,12,14,05,13,0.80
2015,12,14,05,14,0.70
2015,12,14,05,15,0.70
2015,12,14,05,16,0.70
2015,12,14,05,17,0.70
2015,12,14,05,18,0.70
2015,12,14,05,19,0.70
2015,12,14,05,20,0.70
2015,12,14,05,21,0.70
2015,12,14,05,22,0.70
2015,12,14,05,23,0.70
2015,12,14,05,24,0.70
2015,12,14,05,25,0.70
2015,12,14,05,26,0.70
2015,12,14,05,27,0.70
2015,12,14,05,28,0.70
2015,12,14,05,29,0.70
2015,12,14,05,30,0.70
2015,12,14,05,31,0.60
2015,12,14,05,32,0.60
2015,12,14,05,33,0.60
2015,12,14,05,34,0.60
2015,12,14,05,35,0.60
2015,12,14,05,36,0.50
2015,12,14,05,37,0.50
2015,12,14,05,38,0.50
2015,12,14,05,39,0.50
2015,12,14,05,40,0.40
2015,12,14,05,41,0.40
2015,12,14,05,42,0.40
2015,12,14,05,43,0.50
2015,12,14,05,44,0.50
2015,12,14,05,45,0.50
2015,12,14,05,46,0.60
2015,12,14,05,47,0.60
2015,12,14,05,48,0.60
2015,12,14,05,49,0.60
2015,12,14,05,50,0.60
2015,12,14,05,51,0.60
2015,12,14,05,52,0.60
2015,12,14,05,53,0.60
2015,12,14,05,54,0.60
2015,12,14,05,55,0.60
2015,12,14,05,56,0.60
2015,12,14,05,57,0.60
2015,12,14,05,58,0.60
2015,12,14,05,59,0.60
2015,12,14,06,00,0.60
2015,12,14,06,01,0.60
2015,12,14,06,02,0.60
2015,12,14,06,03,0.60
2015,12,14,06,04,0.50
2015,12,14,06,05,0.50
2015,12,14,06,06,0.50
2015,12,14,06,07,0.50
2015,12,14,06,08,0.50
2015,12,14,06,09,0.40
2015,12,14,06,10,0.40
2015,12,14,06,11,0.40
2015,12,14,06,12,0.40
2015,12,14,06,13,0.40
2015,12,14,06,14,0.40
2015,12,14,06,15,0.40
2015,12,14,06,16,0.40
2015,12,14,06,17,0.40
2015,12,14,06,18,0.40
2015,12,14,06,19,0.40
2015,12,14,06,20,0.40
2015,12,14,06,21,0.40
2015,12,14,06,22,0.40
2015,12,14,06,23,0.40
2015,12,14,06,24,0.40
2015,12,14,06,25,0.40
2015,12,14,06,26,0.40
2015,12,14,06,27,0.50
2015,12,14,06,28,0.50
2015,12,14,06,29,0.50
2015,12,14,06,30,0.50
2015,12,14,06,31,0.40
2015,12,14,06,32,0.40
2015,12,14,06,33,0.40
2015,12,14,06,34,0.40
2015,12,14,06,35,0.40
2015,12,14,06,36,0.40
2015,12,14,06,37,0.40
2015,12,14,06,38,0.40
2015,12,14,06,39,0.40
2015,12,14,06,40,0.40
2015,12,14,06,41,0.40
2015,12,14,06,42,0.40
2015,12,14,06,43,0.40
2015,12,14,06,44,0.40
2015,12,14,06,45,0.30
2015,12,14,06,46,0.30
2015,12,14,06,47,0.30
2015,12,14,06,48,0.20
2015,12,14,06,49,0.20
2015,12,14,06,50,0.20
2015,12,14,06,51,0.20
2015,12,14,06,52,0.10
2015,12,14,06,53,0.10
2015,12,14,06,54,0.10
2015,12,14,06,55,0.00
2015,12,14,06,56,-0.10
2015,12,14,06,57,-0.10
2015,12,14,06,58,-0.10
2015,12,14,06,59,-0.20
2015,12,14,07,00,-0.20
2015,12,14,07,01,-0.20
2015,12,14,07,02,-0.20
2015,12,14,07,03,-0.30
2015,12,14,07,04,-0.30
2015,12,14,07,05,-0.30
2015,12,14,07,06,-0.30
2015,12,14,07,07,-0.30
2015,12,14,07,08,-0.30
2015,12,14,07,09,-0.20
2015,12,14,07,10,-0.20
2015,12,14,07,11,-0.20
2015,12,14,07,12,-0.20
2015,12,14,07,13,-0.10
2015,12,14,07,14,-0.10
2015,12,14,07,15,-0.10
2015,12,14,07,16,-0.10
2015,12,14,07,17,-0.10
2015,12,14,07,18,0.00
2015,12,14,07,19,0.00
2015,12,14,07,20,0.10
2015,12,14,07,21,0.20
2015,12,14,07,22,0.20
2015,12,14,07,23,0.20
2015,12,14,07,24,0.20
2015,12,14,07,25,0.30
2015,12,14,07,26,0.30
2015,12,14,07,27,0.30
2015,12,14,07,28,0.40
2015,12,14,07,29,0.40
2015,12,14,07,30,0.40
2015,12,14,07,31,0.50
2015,12,14,07,32,0.50
2015,12,14,07,33,0.50
2015,12,14,07,34,0.50
2015,12,14,07,35,0.50
2015,12,14,07,36,0.40
2015,12,14,07,37,0.40
2015,12,14,07,38,0.40
2015,12,14,07,39,0.30
2015,12,14,07,40,0.30
2015,12,14,07,41,0.40
2015,12,14,07,42,0.40
2015,12,14,07,43,0.40
2015,12,14,07,44,0.50
2015,12,14,07,45,0.50
2015,12,14,07,46,0.50
2015,12,14,07,47,0.50
2015,12,14,07,48,0.40
2015,12,14,07,49,0.40
2015,12,14,07,50,0.40
2015,12,14,07,51,0.40
2015,12,14,07,52,0.40
2015,12,14,07,53,0.40
2015,12,14,07,54,0.40
2015,12,14,07,55,0.40
2015,12,14,07,56,0.30
2015,12,14,07,57,0.30
2015,12,14,07,58,0.30
2015,12,14,07,59,0.30
2015,12,14,08,00,0.30
2015,12,14,08,01,0.30
2015,12,14,08,02,0.30
2015,12,14,08,03,0.30
2015,12,14,08,04,0.30
2015,12,14,08,05,0.20
2015,12,14,08,06,0.20
2015,12,14,08,07,0.30
2015,12,14,08,08,0.30
2015,12,14,08,09,0.30
2015,12,14,08,10,0.40
2015,12,14,08,11,0.40
2015,12,14,08,12,0.50
2015,12,14,08,13,0.50
2015,12,14,08,14,0.50
2015,12,14,08,15,0.60
2015,12,14,08,16,0.60
2015,12,14,08,17,0.50
2015,12,14,08,18,0.50
2015,12,14,08,19,0.50
2015,12,14,08,20,0.50
2015,12,14,08,21,0.40
2015,12,14,08,22,0.40
2015,12,14,08,23,0.40
2015,12,14,08,24,0.40
2015,12,14,08,25,0.40
2015,12,14,08,26,0.40
2015,12,14,08,27,0.40
2015,12,14,08,28,0.40
2015,12,14,08,29,0.40
2015,12,14,08,30,0.50
2015,12,14,08,31,0.50
2015,12,14,08,32,0.50
2015,12,14,08,33,0.50
2015,12,14,08,34,0.50
2015,12,14,08,35,0.50
2015,12,14,08,36,0.50
2015,12,14,08,37,0.60
2015,12,14,08,38,0.60
2015,12,14,08,39,0.60
2015,12,14,08,40,0.60
2015,12,14,08,41,0.60
2015,12,14,08,42,0.60
2015,12,14,08,43,0.60
2015,12,14,08,44,0.60
2015,12,14,08,45,0.60
2015,12,14,08,46,0.60
2015,12,14,08,47,0.70
2015,12,14,08,48,0.70
2015,12,14,08,49,0.70
2015,12,14,08,50,0.70
2015,12,14,08,51,0.70
2015,12,14,08,52,0.70
2015,12,14,08,53,0.80
2015,12,14,08,54,0.80
2015,12,14,08,55,0.80
2015,12,14,08,56,0.80
2015,12,14,08,57,0.80
2015,12,14,08,58,0.90
2015,12,14,08,59,0.90
2015,12,14,09,00,0.90
2015,12,14,09,01,0.90
2015,12,14,09,02,1.00
2015,12,14,09,03,1.00
2015,12,14,09,04,1.00
2015,12,14,09,05,1.10
2015,12,14,09,06,1.10
2015,12,14,09,07,1.10
2015,12,14,09,08,1.10
2015,12,14,09,09,1.20
2015,12,14,09,10,1.20
2015,12,14,09,11,1.20
2015,12,14,09,12,1.20
2015,12,14,09,13,1.20
2015,12,14,09,14,1.20
2015,12,14,09,15,1.30
2015,12,14,09,16,1.30
2015,12,14,09,17,1.30
2015,12,14,09,18,1.40
2015,12,14,09,19,1.40
2015,12,14,09,20,1.40
2015,12,14,09,21,1.50
2015,12,14,09,22,1.50
2015,12,14,09,23,1.50
2015,12,14,09,24,1.60
2015,12,14,09,25,1.60
2015,12,14,09,26,1.60
2015,12,14,09,27,1.60
2015,12,14,09,28,1.70
2015,12,14,09,29,1.70
2015,12,14,09,30,1.70
2015,12,14,09,31,1.70
2015,12,14,09,32,1.70
2015,12,14,09,33,1.80
2015,12,14,09,34,1.80
2015,12,14,09,35,1.80
2015,12,14,09,36,1.80
2015,12,14,09,37,1.90
2015,12,14,09,38,1.90
2015,12,14,09,39,1.90
2015,12,14,09,40,1.90
2015,12,14,09,41,1.90
2015,12,14,09,42,2.00
2015,12,14,09,43,2.00
2015,12,14,09,44,2.00
2015,12,14,09,45,2.10
2015,12,14,09,46,2.10
2015,12,14,09,47,2.10
2015,12,14,09,48,2.10
2015,12,14,09,49,2.10
2015,12,14,09,50,2.20
2015,12,14,09,51,2.20
2015,12,14,09,52,2.20
2015,12,14,09,53,2.20
2015,12,14,09,54,2.20
2015,12,14,09,55,2.20
2015,12,14,09,56,2.20
2015,12,14,09,57,2.20
2015,12,14,09,58,2.20
2015,12,14,09,59,2.20
2015,12,14,10,00,2.20
2015,12,14,10,01,2.20
2015,12,14,10,02,2.20
2015,12,14,10,03,2.20
2015,12,14,10,04,2.20
2015,12,14,10,05,2.20
2015,12,14,10,06,2.20
2015,12,14,10,07,2.20
2015,12,14,10,08,2.20
2015,12,14,10,09,2.20
2015,12,14,10,10,2.20
2015,12,14,10,11,2.20
2015,12,14,10,12,2.20
2015,12,14,10,13,2.30
2015,12,14,10,14,2.30
2015,12,14,10,15,2.30
2015,12,14,10,16,2.30
2015,12,14,10,17,2.30
2015,12,14,10,18,2.30
2015,12,14,10,19,2.30
2015,12,14,10,20,2.30
2015,12,14,10,21,2.30
2015,12,14,10,22,2.40
2015,12,14,10,23,2.40
2015,12,14,10,24,2.40
2015,12,14,10,25,2.40
2015,12,14,10,26,2.40
2015,12,14,10,27,2.50
2015,12,14,10,28,2.50
2015,12,14,10,29,2.50
2015,12,14,10,30,2.60
2015,12,14,10,31,2.60
2015,12,14,10,32,2.70
2015,12,14,10,33,2.70
2015,12,14,10,34,2.70
2015,12,14,10,35,2.70
2015,12,14,10,36,2.80
2015,12,14,10,37,2.80
2015,12,14,10,38,2.90
2015,12,14,10,39,2.90
2015,12,14,10,40,3.00
2015,12,14,10,41,3.10
2015,12,14,10,42,3.10
2015,12,14,10,43,3.20
2015,12,14,10,44,3.20
2015,12,14,10,45,3.30
2015,12,14,10,46,3.30
2015,12,14,10,47,3.30
2015,12,14,10,48,3.40
2015,12,14,10,49,3.40
2015,12,14,10,50,3.40
2015,12,14,10,51,3.50
2015,12,14,10,52,3.50
2015,12,14,10,53,3.50
2015,12,14,10,54,3.60
2015,12,14,10,55,3.60
2015,12,14,10,56,3.70
2015,12,14,10,57,3.70
2015,12,14,10,58,3.80
2015,12,14,10,59,3.80
2015,12,14,11,00,3.80
2015,12,14,11,01,3.80
2015,12,14,11,02,3.90
2015,12,14,11,03,3.90
2015,12,14,11,04,3.90
2015,12,14,11,05,3.90
2015,12,14,11,06,4.00
2015,12,14,11,07,4.00
2015,12,14,11,08,4.10
2015,12,14,11,09,4.10
2015,12,14,11,10,4.20
2015,12,14,11,11,4.30
2015,12,14,11,12,4.40
2015,12,14,11,13,4.50
2015,12,14,11,14,4.50
2015,12,14,11,15,4.60
2015,12,14,11,16,4.70
2015,12,14,11,17,4.80
2015,12,14,11,18,4.90
2015,12,14,11,19,4.90
2015,12,14,11,20,5.00
2015,12,14,11,21,5.10
2015,12,14,11,22,5.10
2015,12,14,11,23,5.10
2015,12,14,11,24,5.20
2015,12,14,11,25,5.20
2015,12,14,11,26,5.20
2015,12,14,11,27,5.20
2015,12,14,11,28,5.20
2015,12,14,11,29,5.30
2015,12,14,11,30,5.30
2015,12,14,11,31,5.30
2015,12,14,11,32,5.40
2015,12,14,11,33,5.40
2015,12,14,11,34,5.50
2015,12,14,11,35,5.60
2015,12,14,11,36,5.70
2015,12,14,11,37,5.70
2015,12,14,11,38,5.80
2015,12,14,11,39,5.80
2015,12,14,11,40,5.90
2015,12,14,11,41,6.00
2015,12,14,11,42,6.00
2015,12,14,11,43,6.10
2015,12,14,11,44,6.20
2015,12,14,11,45,6.20
2015,12,14,11,46,6.30
2015,12,14,11,47,6.30
2015,12,14,11,48,6.30
2015,12,14,11,49,6.40
2015,12,14,11,50,6.40
2015,12,14,11,51,6.40
2015,12,14,11,52,6.40
2015,12,14,11,53,6.40
2015,12,14,11,54,6.40
2015,12,14,11,55,6.40
2015,12,14,11,56,6.40
2015,12,14,11,57,6.40
2015,12,14,11,58,6.40
2015,12,14,11,59,6.40
2015,12,14,12,00,6.40
2015,12,14,12,01,6.40
2015,12,14,12,02,6.50
2015,12,14,12,03,6.50
2015,12,14,12,04,6.50
2015,12,14,12,05,6.60
2015,12,14,12,06,6.60
2015,12,14,12,07,6.60
2015,12,14,12,08,6.60
2015,12,14,12,09,6.60
2015,12,14,12,10,6.60
2015,12,14,12,11,6.60
2015,12,14,12,12,6.60
2015,12,14,12,13,6.60
2015,12,14,12,14,6.60
2015,12,14,12,15,6.60
2015,12,14,12,16,6.60
2015,12,14,12,17,6.60
2015,12,14,12,18,6.70
2015,12,14,12,19,6.70
2015,12,14,12,20,6.70
2015,12,14,12,21,6.70
2015,12,14,12,22,6.70
2015,12,14,12,23,6.70
2015,12,14,12,24,6.80
2015,12,14,12,25,6.80
2015,12,14,12,26,6.80
2015,12,14,12,27,6.80
2015,12,14,12,28,6.80
2015,12,14,12,29,6.90
2015,12,14,12,30,6.90
2015,12,14,12,31,6.90
2015,12,14,12,32,6.90
2015,12,14,12,33,6.90
2015,12,14,12,34,6.90
2015,12,14,12,35,6.90
2015,12,14,12,36,6.90
2015,12,14,12,37,6.90
2015,12,14,12,38,7.00
2015,12,14,12,39,7.00
2015,12,14,12,40,7.10
2015,12,14,12,41,7.10
2015,12,14,12,42,7.20
2015,12,14,12,43,7.20
2015,12,14,12,44,7.20
2015,12,14,12,45,7.30
2015,12,14,12,46,7.30
2015,12,14,12,47,7.30
2015,12,14,12,48,7.30
2015,12,14,12,49,7.30
2015,12,14,12,50,7.30
2015,12,14,12,51,7.30
2015,12,14,12,52,7.20
2015,12,14,12,53,7.20
2015,12,14,12,54,7.20
2015,12,14,12,55,7.20
2015,12,14,12,56,7.20
2015,12,14,12,57,7.30
2015,12,14,12,58,7.30
2015,12,14,12,59,7.30
2015,12,14,13,00,7.30
2015,12,14,13,01,7.30
2015,12,14,13,02,7.20
2015,12,14,13,03,7.20
2015,12,14,13,04,7.20
2015,12,14,13,05,7.20
2015,12,14,13,06,7.30
2015,12,14,13,07,7.30
2015,12,14,13,08,7.30
2015,12,14,13,09,7.30
2015,12,14,13,10,7.30
2015,12,14,13,11,7.30
2015,12,14,13,12,7.30
2015,12,14,13,13,7.30
2015,12,14,13,14,7.40
2015,12,14,13,15,7.40
2015,12,14,13,16,7.40
2015,12,14,13,17,7.40
2015,12,14,13,18,7.40
2015,12,14,13,19,7.40
2015,12,14,13,20,7.40
2015,12,14,13,21,7.40
2015,12,14,13,22,7.40
2015,12,14,13,23,7.50
2015,12,14,13,24,7.50
2015,12,14,13,25,7.60
2015,12,14,13,26,7.60
2015,12,14,13,27,7.60
2015,12,14,13,28,7.70
2015,12,14,13,29,7.70
2015,12,14,13,30,7.70
2015,12,14,13,31,7.80
2015,12,14,13,32,7.80
2015,12,14,13,33,7.80
2015,12,14,13,34,7.70
2015,12,14,13,35,7.70
2015,12,14,13,36,7.70
2015,12,14,13,37,7.70
2015,12,14,13,38,7.60
2015,12,14,13,39,7.60
2015,12,14,13,40,7.60
2015,12,14,13,41,7.60
2015,12,14,13,42,7.60
2015,12,14,13,43,7.60
2015,12,14,13,44,7.50
2015,12,14,13,45,7.50
2015,12,14,13,46,7.40
2015,12,14,13,47,7.40
2015,12,14,13,48,7.40
2015,12,14,13,49,7.50
2015,12,14,13,50,7.40
2015,12,14,13,51,7.40
2015,12,14,13,52,7.50
2015,12,14,13,53,7.40
2015,12,14,13,54,7.40
2015,12,14,13,55,7.40
2015,12,14,13,56,7.40
2015,12,14,13,57,7.30
2015,12,14,13,58,7.30
2015,12,14,13,59,7.30
2015,12,14,14,00,7.30
2015,12,14,14,01,7.30
2015,12,14,14,02,7.30
2015,12,14,14,03,7.30
2015,12,14,14,04,7.30
2015,12,14,14,05,7.30
2015,12,14,14,06,7.30
2015,12,14,14,07,7.30
2015,12,14,14,08,7.30
2015,12,14,14,09,7.30
2015,12,14,14,10,7.30
2015,12,14,14,11,7.30
2015,12,14,14,12,7.30
2015,12,14,14,13,7.30
2015,12,14,14,14,7.30
2015,12,14,14,15,7.30
2015,12,14,14,16,7.40
2015,12,14,14,17,7.40
2015,12,14,14,18,7.50
2015,12,14,14,19,7.50
2015,12,14,14,20,7.60
2015,12,14,14,21,7.60
2015,12,14,14,22,7.70
2015,12,14,14,23,7.70
2015,12,14,14,24,7.70
2015,12,14,14,25,7.70
2015,12,14,14,26,7.70
2015,12,14,14,27,7.70
2015,12,14,14,28,7.70
2015,12,14,14,29,7.60
2015,12,14,14,30,7.60
2015,12,14,14,31,7.60
2015,12,14,14,32,7.60
2015,12,14,14,33,7.60
2015,12,14,14,34,7.50
2015,12,14,14,35,7.50
2015,12,14,14,36,7.50
2015,12,14,14,37,7.50
2015,12,14,14,38,7.50
2015,12,14,14,39,7.40
2015,12,14,14,40,7.40
2015,12,14,14,41,7.40
2015,12,14,14,42,7.40
2015,12,14,14,43,7.40
2015,12,14,14,44,7.30
2015,12,14,14,45,7.30
2015,12,14,14,46,7.30
2015,12,14,14,47,7.30
2015,12,14,14,48,7.30
2015,12,14,14,49,7.40
2015,12,14,14,50,7.40
2015,12,14,14,51,7.40
2015,12,14,14,52,7.50
2015,12,14,14,53,7.50
2015,12,14,14,54,7.50
2015,12,14,14,55,7.50
2015,12,14,14,56,7.60
2015,12,14,14,57,7.60
2015,12,14,14,58,7.70
2015,12,14,14,59,7.70
2015,12,14,15,00,7.70
2015,12,14,15,01,7.80
2015,12,14,15,02,7.80
2015,12,14,15,03,7.80
2015,12,14,15,04,7.90
2015,12,14,15,05,7.90
2015,12,14,15,06,7.90
2015,12,14,15,07,7.90
2015,12,14,15,08,8.00
2015,12,14,15,09,8.00
2015,12,14,15,10,8.00
2015,12,14,15,11,8.00
2015,12,14,15,12,8.10
2015,12,14,15,13,8.10
2015,12,14,15,14,8.00
2015,12,14,15,15,8.00
2015,12,14,15,16,8.00
2015,12,14,15,17,8.00
2015,12,14,15,18,8.00
2015,12,14,15,19,8.00
2015,12,14,15,20,8.00
2015,12,14,15,21,8.00
2015,12,14,15,22,7.90
2015,12,14,15,23,7.90
2015,12,14,15,24,8.00
2015,12,14,15,25,8.00
2015,12,14,15,26,8.00
2015,12,14,15,27,8.00
2015,12,14,15,28,8.00
2015,12,14,15,29,8.00
2015,12,14,15,30,8.00
2015,12,14,15,31,8.00
2015,12,14,15,32,8.00
2015,12,14,15,33,8.00
2015,12,14,15,34,7.90
2015,12,14,15,35,7.90
2015,12,14,15,36,7.80
2015,12,14,15,37,7.80
2015,12,14,15,38,7.80
2015,12,14,15,39,7.70
2015,12,14,15,40,7.70
2015,12,14,15,41,7.60
2015,12,14,15,42,7.60
2015,12,14,15,43,7.60
2015,12,14,15,44,7.60
2015,12,14,15,45,7.50
2015,12,14,15,46,7.50
2015,12,14,15,47,7.50
2015,12,14,15,48,7.40
2015,12,14,15,49,7.40
2015,12,14,15,50,7.40
2015,12,14,15,51,7.40
2015,12,14,15,52,7.40
2015,12,14,15,53,7.30
2015,12,14,15,54,7.30
2015,12,14,15,55,7.30
2015,12,14,15,56,7.30
2015,12,14,15,57,7.20
2015,12,14,15,58,7.20
2015,12,14,15,59,7.20
2015,12,14,16,00,7.20
2015,12,14,16,01,7.20
2015,12,14,16,02,7.20
2015,12,14,16,03,7.20
2015,12,14,16,04,7.20
2015,12,14,16,05,7.20
2015,12,14,16,06,7.10
2015,12,14,16,07,7.10
2015,12,14,16,08,7.10
2015,12,14,16,09,7.00
2015,12,14,16,10,7.00
2015,12,14,16,11,6.90
2015,12,14,16,12,6.90
2015,12,14,16,13,6.90
2015,12,14,16,14,6.80
2015,12,14,16,15,6.80
2015,12,14,16,16,6.70
2015,12,14,16,17,6.70
2015,12,14,16,18,6.70
2015,12,14,16,19,6.60
2015,12,14,16,20,6.60
2015,12,14,16,21,6.60
2015,12,14,16,22,6.50
2015,12,14,16,23,6.50
2015,12,14,16,24,6.40
2015,12,14,16,25,6.40
2015,12,14,16,26,6.40
2015,12,14,16,27,6.40
2015,12,14,16,28,6.40
2015,12,14,16,29,6.40
2015,12,14,16,30,6.30
2015,12,14,16,31,6.30
2015,12,14,16,32,6.30
2015,12,14,16,33,6.30
2015,12,14,16,34,6.30
2015,12,14,16,35,6.30
2015,12,14,16,36,6.20
2015,12,14,16,37,6.20
2015,12,14,16,38,6.20
2015,12,14,16,39,6.10
2015,12,14,16,40,6.10
2015,12,14,16,41,6.10
2015,12,14,16,42,6.10
2015,12,14,16,43,6.00
2015,12,14,16,44,6.00
2015,12,14,16,45,5.90
2015,12,14,16,46,5.90
2015,12,14,16,47,5.90
2015,12,14,16,48,5.90
2015,12,14,16,49,5.80
2015,12,14,16,50,5.80
2015,12,14,16,51,5.80
2015,12,14,16,52,5.80
2015,12,14,16,53,5.80
2015,12,14,16,54,5.80
2015,12,14,16,55,5.80
2015,12,14,16,56,5.80
2015,12,14,16,57,5.80
2015,12,14,16,58,5.70
2015,12,14,16,59,5.70
2015,12,14,17,00,5.70
2015,12,14,17,01,5.70
2015,12,14,17,02,5.70
2015,12,14,17,03,5.70
2015,12,14,17,04,5.70
2015,12,14,17,05,5.70
2015,12,14,17,06,5.70
2015,12,14,17,07,5.70
2015,12,14,17,08,5.70
2015,12,14,17,09,5.70
2015,12,14,17,10,5.70
2015,12,14,17,11,5.70
2015,12,14,17,12,5.70
2015,12,14,17,13,5.70
2015,12,14,17,14,5.70
2015,12,14,17,15,5.60
2015,12,14,17,16,5.60
2015,12,14,17,17,5.60
2015,12,14,17,18,5.60
2015,12,14,17,19,5.60
2015,12,14,17,20,5.60
2015,12,14,17,21,5.50
2015,12,14,17,22,5.50
2015,12,14,17,23,5.50
2015,12,14,17,24,5.40
2015,12,14,17,25,5.40
2015,12,14,17,26,5.40
2015,12,14,17,27,5.40
2015,12,14,17,28,5.40
2015,12,14,17,29,5.40
2015,12,14,17,30,5.30
2015,12,14,17,31,5.30
2015,12,14,17,32,5.30
2015,12,14,17,33,5.30
2015,12,14,17,34,5.30
2015,12,14,17,35,5.30
2015,12,14,17,36,5.20
2015,12,14,17,37,5.20
2015,12,14,17,38,5.10
2015,12,14,17,39,5.10
2015,12,14,17,40,5.10
2015,12,14,17,41,5.00
2015,12,14,17,42,5.00
2015,12,14,17,43,4.90
2015,12,14,17,44,4.90
2015,12,14,17,45,4.90
2015,12,14,17,46,4.90
2015,12,14,17,47,4.90
2015,12,14,17,48,4.90
2015,12,14,17,49,4.80
2015,12,14,17,50,4.80
2015,12,14,17,51,4.80
2015,12,14,17,52,4.80
2015,12,14,17,53,4.80
2015,12,14,17,54,4.80
2015,12,14,17,55,4.80
2015,12,14,17,56,4.80
2015,12,14,17,57,4.70
2015,12,14,17,58,4.70
2015,12,14,17,59,4.70
2015,12,14,18,00,4.70
2015,12,14,18,01,4.70
2015,12,14,18,02,4.70
2015,12,14,18,03,4.70
2015,12,14,18,04,4.70
2015,12,14,18,05,4.60